Total_Precipitation_Accumulation
0.17 0.17 0.13 0.08 0.07 0.05 0.04 0.02 0.01 0.01 0.00 0.01 0.02 0.02 0.03 0.04 0.03 0.01 0.01 0.01 0.03 0.05 0.05 0.07 0.11 0.14 0.12 0.10 0.10 0.18 0.23 0.18 0.11 0.10 0.08 0.12 0.10 0.04 0.02 0.01 0.00 0.00 0.00
0.14 0.14 0.12 0.09 0.07 0.05 0.04 0.03 0.02 0.02 0.02 0.02 0.02 0.03 0.04 0.02 0.02 0.01 0.01 0.00 0.00 0.01 0.01 0.03 0.06 0.11 0.13 0.14 0.13 0.16 0.20 0.22 0.19 0.17 0.14 0.13 0.14 0.11 0.06 0.03 0.01 0.00 0.00
0.20 0.15 0.14 0.12 0.09 0.06 0.04 0.04 0.03 0.04 0.05 0.05 0.02 0.03 0.05 0.05 0.03 0.01 0.01 0.00 0.00 0.00 0.01 0.02 0.04 0.07 0.09 0.14 0.19 0.24 0.25 0.24 0.22 0.20 0.19 0.17 0.14 0.13 0.09 0.04 0.01 0.01 0.00
0.39 0.28 0.22 0.17 0.12 0.10 0.09 0.09 0.08 0.08 0.09 0.08 0.06 0.05 0.09 0.10 0.07 0.03 0.02 0.01 0.00 0.00 0.01 0.01 0.02 0.04 0.08 0.17 0.26 0.30 0.29 0.27 0.26 0.27 0.29 0.26 0.19 0.13 0.09 0.05 0.03 0.01 0.00
0.53 0.46 0.35 0.25 0.18 0.17 0.21 0.25 0.20 0.15 0.16 0.14 0.11 0.09 0.12 0.13 0.11 0.08 0.05 0.03 0.01 0.00 0.00 0.01 0.01 0.02 0.06 0.13 0.25 0.35 0.35 0.31 0.30 0.33 0.33 0.26 0.18 0.12 0.07 0.05 0.03 0.02 0.00
0.53 0.52 0.39 0.33 0.27 0.25 0.28 0.36 0.36 0.25 0.23 0.21 0.18 0.12 0.09 0.12 0.16 0.13 0.09 0.05 0.01 0.00 0.00 0.01 0.01 0.01 0.03 0.07 0.11 0.21 0.30 0.33 0.34 0.33 0.33 0.30 0.23 0.15 0.10 0.06 0.03 0.01 0.00
0.40 0.40 0.31 0.29 0.36 0.37 0.40 0.40 0.33 0.25 0.27 0.29 0.24 0.18 0.12 0.12 0.14 0.13 0.16 0.14 0.05 0.02 0.01 0.01 0.01 0.01 0.02 0.03 0.06 0.13 0.16 0.20 0.23 0.24 0.24 0.22 0.22 0.19 0.15 0.09 0.04 0.02 0.01
0.19 0.16 0.13 0.20 0.29 0.30 0.29 0.26 0.21 0.21 0.27 0.34 0.28 0.24 0.23 0.18 0.17 0.21 0.19 0.13 0.07 0.04 0.03 0.01 0.01 0.01 0.01 0.03 0.04 0.06 0.09 0.13 0.15 0.14 0.14 0.16 0.19 0.21 0.21 0.21 0.16 0.08 0.03
0.02 0.02 0.04 0.05 0.06 0.06 0.05 0.07 0.10 0.14 0.18 0.16 0.20 0.33 0.31 0.26 0.30 0.27 0.18 0.09 0.06 0.06 0.07 0.04 0.02 0.01 0.01 0.03 0.05 0.05 0.04 0.08 0.13 0.19 0.26 0.27 0.28 0.31 0.31 0.29 0.19 0.11 0.05
0.00 0.00 0.00 0.00 0.00 0.00 0.00 0.01 0.03 0.06 0.08 0.08 0.11 0.21 0.27 0.28 0.26 0.15 0.15 0.15 0.14 0.15 0.12 0.07 0.05 0.03 0.02 0.03 0.07 0.07 0.04 0.05 0.14 0.21 0.25 0.28 0.26 0.27 0.30 0.28 0.25 0.19 0.12
0.00 0.00 0.00 0.00 0.00 0.00 0.00 0.00 0.00 0.00 0.01 0.03 0.06 0.06 0.08 0.09 0.09 0.08 0.12 0.12 0.12 0.12 0.09 0.05 0.04 0.04 0.03 0.05 0.07 0.06 0.05 0.06 0.10 0.12 0.11 0.12 0.11 0.12 0.14 0.17 0.18 0.17 0.15
0.00 0.00 0.00 0.00 0.00 0.00 0.00 0.00 0.00 0.00 0.00 0.00 0.01 0.00 0.01 0.01 0.01 0.02 0.02 0.03 0.04 0.03 0.03 0.04 0.05 0.06 0.06 0.08 0.07 0.05 0.06 0.05 0.04 0.03 0.03 0.03 0.03 0.03 0.03 0.05 0.08 0.11 0.13
0.00 0.00 0.00 0.00 0.00 0.00 0.00 0.00 0.00 0.00 0.00 0.00 0.00 0.00 0.01 0.02 0.01 0.01 0.01 0.01 0.02 0.01 0.03 0.07 0.10 0.13 0.09 0.06 0.06 0.05 0.04 0.05 0.04 0.02 0.01 0.01 0.01 0.01 0.02 0.03 0.04 0.05 0.07
0.00 0.00 0.00 0.00 0.00 0.00 0.00 0.00 0.00 0.00 0.00 0.00 0.00 0.01 0.04 0.04 0.03 0.02 0.01 0.02 0.02 0.02 0.03 0.08 0.14 0.16 0.11 0.07 0.05 0.04 0.04 0.05 0.04 0.02 0.01 0.01 0.00 0.01 0.02 0.03 0.02 0.01 0.01
0.00 0.00 0.00 0.00 0.00 0.00 0.00 0.00 0.00 0.00 0.00 0.00 0.00 0.01 0.01 0.01 0.01 0.02 0.04 0.05 0.04 0.03 0.05 0.12 0.20 0.17 0.12 0.08 0.06 0.05 0.05 0.05 0.03 0.02 0.01 0.01 0.01 0.01 0.00 0.00 0.00 0.00 0.00
0.00 0.00 0.00 0.00 0.00 0.00 0.00 0.00 0.00 0.00 0.01 0.01 0.01 0.01 0.01 0.01 0.03 0.05 0.09 0.11 0.10 0.11 0.12 0.21 0.26 0.25 0.21 0.14 0.08 0.06 0.06 0.06 0.04 0.02 0.01 0.01 0.01 0.01 0.01 0.01 0.01 0.01 0.01
0.00 0.00 0.00 0.00 0.00 0.00 0.00 0.00 0.00 0.00 0.00 0.00 0.00 0.00 0.01 0.03 0.06 0.12 0.18 0.19 0.22 0.36 0.47 0.47 0.45 0.42 0.40 0.30 0.18 0.11 0.07 0.04 0.02 0.02 0.02 0.01 0.01 0.01 0.01 0.01 0.01 0.01 0.01
0.00 0.00 0.00 0.00 0.00 0.00 0.00 0.00 0.00 0.00 0.00 0.00 0.00 0.00 0.01 0.02 0.08 0.18 0.28 0.36 0.41 0.53 0.63 0.60 0.62 0.59 0.54 0.37 0.21 0.12 0.06 0.03 0.02 0.01 0.01 0.00 0.01 0.01 0.01 0.00 0.00 0.00 0.00
0.00 0.00 0.00 0.00 0.00 0.00 0.00 0.00 0.00 0.00 0.00 0.00 0.00 0.00 0.00 0.01 0.03 0.08 0.14 0.19 0.21 0.27 0.33 0.35 0.37 0.36 0.31 0.20 0.09 0.05 0.02 0.00 0.00 0.00 0.00 0.00 0.00 0.00 0.00 0.01 0.01 0.01 0.01
0.00 0.00 0.00 0.00 0.00 0.00 0.00 0.00 0.00 0.00 0.00 0.00 0.00 0.00 0.00 0.00 0.01 0.02 0.03 0.04 0.05 0.08 0.10 0.10 0.10 0.09 0.07 0.04 0.02 0.01 0.01 0.01 0.00 0.00 0.00 0.00 0.00 0.00 0.00 0.01 0.01 0.01 0.01
0.00 0.00 0.00 0.00 0.00 0.00 0.00 0.00 0.00 0.00 0.00 0.00 0.00 0.00 0.00 0.00 0.01 0.01 0.01 0.01 0.02 0.02 0.03 0.03 0.03 0.03 0.01 0.01 0.01 0.01 0.01 0.00 0.00 0.00 0.00 0.00 0.00 0.01 0.01 0.01 0.01 0.02 0.02
0.00 0.00 0.00 0.00 0.00 0.00 0.00 0.00 0.00 0.00 0.00 0.00 0.00 0.00 0.01 0.02 0.03 0.02 0.01 0.01 0.02 0.02 0.02 0.02 0.01 0.02 0.01 0.01 0.01 0.00 0.00 0.00 0.00 0.00 0.00 0.00 0.00 0.00 0.01 0.01 0.02 0.03 0.03
0.00 0.00 0.00 0.00 0.00 0.00 0.00 0.00 0.00 0.00 0.00 0.00 0.00 0.00 0.00 0.01 0.02 0.02 0.01 0.01 0.01 0.01 0.01 0.01 0.01 0.01 0.01 0.00 0.00 0.00 0.00 0.00 0.00 0.00 0.01 0.01 0.01 0.02 0.02 0.03 0.03 0.03 0.03
0.00 0.00 0.00 0.00 0.00 0.00 0.00 0.00 0.00 0.00 0.00 0.00 0.00 0.00 0.00 0.00 0.00 0.00 0.00 0.01 0.01 0.01 0.00 0.00 0.00 0.00 0.00 0.00 0.00 0.00 0.00 0.00 0.00 0.01 0.02 0.02 0.03 0.05 0.07 0.07 0.06 0.06 0.09
0.00 0.00 0.00 0.00 0.00 0.00 0.00 0.00 0.00 0.00 0.00 0.00 0.00 0.00 0.00 0.00 0.00 0.00 0.00 0.00 0.00 0.00 0.00 0.00 0.00 0.00 0.00 0.00 0.00 0.00 0.01 0.01 0.01 0.01 0.01 0.01 0.02 0.04 0.06 0.06 0.06 0.06 0.06
0.00 0.00 0.00 0.00 0.00 0.00 0.00 0.00 0.00 0.00 0.00 0.00 0.00 0.00 0.00 0.00 0.00 0.00 0.00 0.00 0.00 0.00 0.00 0.00 0.00 0.00 0.00 0.00 0.00 0.01 0.01 0.01 0.01 0.01 0.01 0.01 0.02 0.03 0.03 0.03 0.02 0.01 0.01